OBJECT AH (43789 NORAD) Tracking and Keplerian Element Data

This shows tracking and keplerian element data for the satellite.

Feedback or suggestion? Click here.




ElementValue
Catalog43789
NameOBJECT AH
Epoch Orbit633
Epoch Day17.18166572
Epoch Year2019
RAAN90.919
Inclination97.7628
Eccentricity0.0017219
Argument of Perigee114.2315
Mean Anonmoly246.0707
Mean Motion14.9542341
Decay Rate-1.78E-06
L11 43789U 18099AH 19017.18166572 -.00000178 00000-0 -10779-4 0 9998
L22 43789 97.7628 90.9190 0017219 114.2315 246.0707 14.95423410 6338

Live tracking and technical data element details for OBJECT AH (NORAD 43789). OBJECT AH can be tracked NOW for your location showing map with azimuth and elevation plus other details from your city location.

Track the satellite on the map from your city or location and see movement details for azimuth, elevation, latitude, longitude, range, height, and movement on the map or in text.







IsCatalogInMostPopularTable: catalog: 43789, numindb: 21
Update: records affected: 1



GetName: 43789 OBJECT AH

Hit Count: updated at: Wed, 23 Jan 2019 03:55:05 GMT